Location: Pasadena, ca
(34.1243°N, 118.1037°W)
Time: 08:57:38
(UTC-07:00)

Amateur Radio Satellites - All Passes

Search period start: 24 September 2017 08:27
Search period end: 25 September 2017 08:27
Location: Pasadena, ca, 34.1243°N, 118.1037°W

Satellite Date Start Highest point End Downlink Frequencies (MHz)
Time Altitude Azimuth
Oscar 11 24 Sep 08:40:04 08:43:17 20° 95° (E) 08:46:27 .
AO-73 24 Sep 08:41:13 08:45:19 32° 97° (E) 08:49:21 145.935
AAUSAT CUBESAT 2 24 Sep 08:43:30 08:47:36 66° 102° (ESE) 08:51:39 437.432
ZACube-1 24 Sep 08:44:21 08:48:40 40° 98° (E) 08:52:56 437.345
CUTE-I 24 Sep 08:52:28 08:54:15 12° 298° (WNW) 08:56:03 437.470
CUTE 1.7 + AOD 2 24 Sep 08:53:09 08:56:28 23° 290° (WNW) 08:59:46 437.475
STRAND 1 24 Sep 09:01:04 09:03:24 13° 268° (W) 09:05:44 437.568
UNISAT 6 24 Sep 09:21:05 09:24:42 27° 71° (ENE) 09:28:24 437.425
CUBEBUG 2 24 Sep 09:30:06 09:33:28 20° 291° (WNW) 09:36:50 437.445
UWE-3 24 Sep 09:34:53 09:38:53 28° 289° (WNW) 09:42:51 435.000/436.395/437.385
XW-2A 24 Sep 09:40:36 09:41:09 10° 292° (WNW) 09:41:42 145.665 - 145.685
TIGRISAT 24 Sep 09:43:59 09:48:05 45° 74° (ENE) 09:52:17 435.000
FO-29 24 Sep 09:44:18 09:50:01 52° 259° (W) 09:55:15 435.910
RS-15 24 Sep 09:50:04 09:55:09 13° 349° (N) 10:00:13 29.354- 29.394
HO-68 24 Sep 09:54:45 09:59:19 18° 300° (WNW) 10:03:53 435.675
PRISM 24 Sep 10:04:12 10:08:04 43° 74° (ENE) 10:11:58 437.425
DELFI C3 24 Sep 10:05:05 10:08:48 41° 99° (E) 10:12:29 145.870
Oscar 11 24 Sep 10:15:40 10:19:22 28° 289° (WNW) 10:23:02 .
AO-73 24 Sep 10:17:58 10:21:16 20° 291° (WNW) 10:24:33 145.935
ZACube-1 24 Sep 10:21:41 10:24:33 17° 292° (WNW) 10:27:24 437.345
EO-88 24 Sep 10:23:54 10:27:18 36° 98° (E) 10:30:40 145.990 - 145.960
NANOSAT C BR1 24 Sep 10:55:54 10:56:32 10° 66° (ENE) 10:57:10 145.865
UNISAT 6 24 Sep 10:58:03 11:01:21 21° 265° (W) 11:04:43 437.425
Max Valier Satellite 24 Sep 10:58:32 11:02:09 47° 284° (WNW) 11:05:43 145.860
LO-87 24 Sep 11:18:01 11:20:42 19° 96° (E) 11:23:23 145.935 - 145.965
DUCHIFAT 1 24 Sep 11:21:22 11:24:17 19° 69° (ENE) 11:27:15 145.980
YUBILEINY 24 Sep 11:22:02 11:28:58 28° 84° (E) 11:35:53 435.215
TIGRISAT 24 Sep 11:23:11 11:24:59 12° 268° (W) 11:26:48 435.000
O/OREOS (USA 219) 24 Sep 11:34:48 11:38:02 19° 61° (ENE) 11:41:16 437.305
POLYITAN 1 24 Sep 11:35:24 11:39:15 36° 73° (ENE) 11:43:07 437.675
AIST 2D 24 Sep 11:37:22 11:40:53 65° 260° (W) 11:44:25 435.315
M-CUBED/EXP-1 PRIME 24 Sep 11:37:43 11:40:19 16° 65° (ENE) 11:42:48 437.505
EO-79 24 Sep 11:39:21 11:43:16 40° 73° (ENE) 11:47:14 145.935-145.965
DELFI C3 24 Sep 11:41:49 11:43:08 11° 293° (WNW) 11:44:27 145.870
PRISM 24 Sep 11:42:08 11:43:30 11° 267° (W) 11:44:52 437.425
QB50P2 24 Sep 11:53:01 11:57:11 69° 75° (ENE) 12:01:23 145.880/145.840
BUGSAT 1 24 Sep 11:55:30 11:56:16 10° 66° (ENE) 11:57:01 437.445
EO-88 24 Sep 11:59:30 12:00:33 11° 292° (WNW) 12:01:36 145.990 - 145.960
RS-15 24 Sep 12:07:18 12:15:09 19° 28° (NNE) 12:22:43 29.354- 29.394
Oscar 19 24 Sep 12:11:18 12:11:42 10° 62° (ENE) 12:12:05 437.125/150
NO-84 24 Sep 12:11:42 12:15:41 57° 129° (SE) 12:19:23 435.350 FM
NANOSAT C BR1 24 Sep 12:27:37 12:31:42 54° 260° (W) 12:35:50 145.865
ESTCUBE 1 24 Sep 12:30:51 12:35:20 76° 284° (WNW) 12:39:48 437.505/2401.250
SPROUT 24 Sep 12:48:09 12:52:07 36° 98° (E) 12:56:05 437.525
LO-87 24 Sep 12:51:21 12:53:58 19° 289° (WNW) 12:56:35 145.935 - 145.965
VELOX 1 24 Sep 12:56:04 12:59:59 31° 98° (E) 13:03:54 145.980
DUCHIFAT 1 24 Sep 12:56:08 12:59:43 28° 263° (W) 13:03:21 145.980
M-CUBED/EXP-1 PRIME 24 Sep 13:10:23 13:14:27 37° 256° (WSW) 13:18:17 437.505
POLYITAN 1 24 Sep 13:12:47 13:15:07 14° 267° (W) 13:17:27 437.675
O/OREOS (USA 219) 24 Sep 13:13:19 13:17:31 35° 256° (WSW) 13:21:42 437.305
YUBILEINY 24 Sep 13:16:44 13:25:10 54° 280° (W) 13:33:40 435.215
EO-79 24 Sep 13:17:15 13:19:10 13° 267° (W) 13:21:05 145.935-145.965
BUGSAT 1 24 Sep 13:27:14 13:31:07 49° 260° (W) 13:35:03 437.445
SO-50 24 Sep 13:28:28 13:32:48 50° 115° (ESE) 13:37:09 436.795
Gurwin Techsat 1B 24 Sep 13:37:48 13:42:57 53° 73° (ENE) 13:48:07 435.225
Oscar 19 24 Sep 13:45:02 13:50:14 84° 258° (WSW) 13:55:27 437.125/150
NO-84 24 Sep 13:50:54 13:53:17 16° 323° (NW) 13:55:34 435.350 FM
UKube-1 24 Sep 13:53:21 13:56:37 21° 96° (E) 13:59:52 .
DX 1 24 Sep 14:01:37 14:05:45 43° 100° (E) 14:09:52 434.975-435.025
50 SAT 24 Sep 14:03:15 14:06:33 68° 102° (ESE) 14:09:49 437.505
PCSat 24 Sep 14:12:51 14:18:08 58° 112° (ESE) 14:23:28 145.827
RS-15 24 Sep 14:19:05 14:30:53 61° 56° (NE) 14:41:58 29.354- 29.394
SPROUT 24 Sep 14:25:06 14:27:40 16° 292° (WNW) 14:30:15 437.525
VELOX 1 24 Sep 14:33:06 14:36:10 19° 292° (WNW) 14:39:14 145.980
AO-7 24 Sep 14:36:56 14:44:27 39° 64° (ENE) 14:51:57 .
ITAMSAT 1 24 Sep 14:53:13 14:57:25 26° 68° (ENE) 15:01:38 435.822/435.867
BEESAT 24 Sep 15:07:29 15:10:28 16° 94° (E) 15:13:25 436.000
SO-50 24 Sep 15:10:46 15:13:31 16° 311° (NW) 15:16:16 436.795
Gurwin Techsat 1B 24 Sep 15:20:07 15:23:09 15° 267° (W) 15:26:11 435.225
MOZHAYETS 4 24 Sep 15:28:53 15:32:53 28° 97° (E) 15:36:51
UKube-1 24 Sep 15:28:57 15:32:34 27° 290° (WNW) 15:36:10 .
DX 1 24 Sep 15:39:19 15:41:31 14° 294° (WNW) 15:43:43 434.975-435.025
PCSat 24 Sep 15:58:16 16:01:54 18° 308° (NW) 16:05:33 145.827
CUBESAT XI-V 24 Sep 16:00:17 16:01:38 11° 92° (E) 16:03:00 437.345
ITUPSAT 1 24 Sep 16:07:39 16:12:29 76° 101° (ESE) 16:17:17 437.325
DOVE 4 24 Sep 16:18:45 16:20:45 13° 68° (ENE) 16:22:43 437.250
AO-7 24 Sep 16:29:19 16:37:02 41° 259° (W) 16:44:48 .
ITAMSAT 1 24 Sep 16:32:08 16:36:41 31° 262° (W) 16:41:16 435.822/435.867
RS-15 24 Sep 16:32:34 16:42:31 34° 256° (WSW) 16:52:04 29.354- 29.394
BEESAT 24 Sep 16:43:51 16:48:22 42° 288° (WNW) 16:52:51 436.000
MOZHAYETS 4 24 Sep 17:06:13 17:09:50 23° 291° (WNW) 17:13:26
XW-2C 24 Sep 17:09:15 17:09:54 10° 67° (ENE) 17:10:33 145.795 - 145.815
KKS-1 24 Sep 17:17:37 17:21:26 28° 97° (E) 17:25:15 437.445
LilacSat-2 24 Sep 17:20:58 17:23:26 17° 70° (ENE) 17:25:56 437.200
CUBESAT XI-V 24 Sep 17:34:46 17:39:17 55° 285° (WNW) 17:43:46 437.345
KAITUO 1B 24 Sep 17:34:54 17:37:18 16° 70° (ENE) 17:39:43 145.475/437.950
JUGNU 24 Sep 17:35:10 17:37:44 13° 166° (SSE) 17:40:17 437.505
STARS 24 Sep 17:39:17 17:42:22 18° 95° (E) 17:45:27 437.465
DOVE 4 24 Sep 17:53:48 17:58:05 44° 260° (W) 18:02:12 437.250
XW-2D 24 Sep 18:05:59 18:09:46 62° 76° (ENE) 18:13:35 145.860 - 145.880
CUTE 1.7 + AOD 2 24 Sep 18:08:23 18:09:38 11° 66° (ENE) 18:10:54 437.475
Tancredo 1 24 Sep 18:16:56 18:19:31 46° 133° (SE) 18:22:06 437.200
XW-2F 24 Sep 18:17:21 18:21:10 81° 79° (E) 18:25:00 145.980 - 146.000
XW-2B 24 Sep 18:18:20 18:22:09 88° 78° (ENE) 18:26:01 145.730 - 145.750
CUTE-I 24 Sep 18:27:36 18:32:55 86° 75° (ENE) 18:38:15 437.470
HO-68 24 Sep 18:29:55 18:36:21 38° 67° (ENE) 18:42:50 435.675
NUDT-PHONESAT 24 Sep 18:36:43 18:40:27 74° 259° (W) 18:44:13 437.300
XW-2C 24 Sep 18:39:56 18:43:37 44° 261° (W) 18:47:20 145.795 - 145.815
CUBEBUG 2 24 Sep 18:48:13 18:51:04 18° 68° (ENE) 18:53:59 437.445
UWE-3 24 Sep 18:54:07 18:55:33 11° 65° (ENE) 18:56:59 435.000/436.395/437.385
LilacSat-2 24 Sep 18:54:08 18:57:27 27° 263° (W) 19:00:48 437.200
KKS-1 24 Sep 18:54:24 18:57:48 22° 291° (WNW) 19:01:12 437.445
AO-85 24 Sep 18:57:31 18:58:33 11° 108° (ESE) 18:59:35 145.980
KAITUO 1B 24 Sep 19:07:49 19:11:02 26° 263° (W) 19:14:16 145.475/437.950
SEEDS 24 Sep 19:10:37 19:14:31 37° 73° (ENE) 19:18:25 437.485
ISS 24 Sep 19:14:20 19:16:57 23° 129° (SE) 19:19:36 437.550
STARS 24 Sep 19:14:48 19:18:42 32° 289° (WNW) 19:22:36 437.465
JUGNU 24 Sep 19:21:55 19:26:02 19° 176° (S) 19:30:08 437.505
BEESAT 3 24 Sep 19:24:07 19:28:06 83° 300° (WNW) 19:32:08 437.485
AAUSAT CUBESAT 2 24 Sep 19:30:00 19:33:28 26° 72° (ENE) 19:36:55 437.432
STRAND 1 24 Sep 19:33:38 19:37:57 27° 96° (E) 19:42:15 437.568
Oscar 11 24 Sep 19:33:48 19:34:24 10° 65° (ENE) 19:34:59 .
AO-73 24 Sep 19:33:59 19:36:35 16° 68° (ENE) 19:39:15 145.935
BEESAT 2 24 Sep 19:34:50 19:38:25 33° 113° (ESE) 19:42:03 435.950
ZACube-1 24 Sep 19:37:03 19:40:09 19° 69° (ENE) 19:43:19 437.345
CUTE 1.7 + AOD 2 24 Sep 19:40:46 19:44:57 53° 260° (W) 19:49:09 437.475
nSIGHT-1 24 Sep 19:50:40 19:53:51 74° 136° (SE) 19:57:04 .
Tancredo 1 24 Sep 19:53:07 19:54:10 12° 329° (NNW) 19:55:13 437.200
XW-2A 24 Sep 20:05:02 20:08:21 56° 260° (W) 20:11:44 145.665 - 145.685
HO-68 24 Sep 20:17:37 20:24:00 35° 262° (W) 20:30:26 435.675
CUBEBUG 2 24 Sep 20:23:39 20:27:24 31° 263° (W) 20:31:17 437.445
NO-84 24 Sep 20:25:54 20:28:49 59° 47° (NE) 20:31:36 435.350 FM
UWE-3 24 Sep 20:27:17 20:31:26 52° 260° (W) 20:35:45 435.000/436.395/437.385
AO-85 24 Sep 20:34:45 20:38:28 43° 302° (WNW) 20:42:13 145.980
DELFI C3 24 Sep 20:47:56 20:50:07 15° 69° (ENE) 20:52:19 145.870
SEEDS 24 Sep 20:47:56 20:50:17 14° 267° (W) 20:52:37 437.485
SRMSAT 24 Sep 20:50:08 20:53:13 14° 168° (SSE) 20:56:17 437.500
ISS 24 Sep 20:50:30 20:53:19 27° 324° (NW) 20:56:10 437.550
FO-29 24 Sep 20:56:38 21:00:59 22° 97° (E) 21:05:41 435.910
Oscar 11 24 Sep 21:05:40 21:09:57 60° 259° (W) 21:14:16 .
AAUSAT CUBESAT 2 24 Sep 21:05:46 21:08:50 20° 265° (W) 21:11:55 437.432
AO-73 24 Sep 21:08:27 21:12:27 37° 262° (W) 21:16:34 145.935
JUGNU 24 Sep 21:10:22 21:14:22 19° 186° (S) 21:18:22 437.505
ZACube-1 24 Sep 21:12:24 21:16:10 30° 263° (W) 21:20:04 437.345
STRAND 1 24 Sep 21:12:36 21:17:02 30° 290° (WNW) 21:21:28 437.568
BEESAT 2 24 Sep 21:13:24 21:16:12 18° 308° (NW) 21:19:02 435.950
nSIGHT-1 24 Sep 21:29:01 21:30:31 13° 332° (NNW) 21:32:01 .
Max Valier Satellite 24 Sep 21:33:17 21:36:43 37° 74° (ENE) 21:40:11 145.860
TIGRISAT 24 Sep 21:40:25 21:42:52 14° 93° (E) 21:45:17 435.000
SO-50 24 Sep 22:03:49 22:07:01 18° 50° (NE) 22:10:14 436.795
DELFI C3 24 Sep 22:20:59 22:24:33 32° 262° (W) 22:28:07 145.870
EO-88 24 Sep 22:30:48 22:34:18 43° 261° (W) 22:37:49 145.990 - 145.960
SRMSAT 24 Sep 22:37:32 22:41:40 20° 178° (S) 22:45:49 437.500
FO-29 24 Sep 22:40:47 22:46:06 45° 287° (WNW) 22:52:02 435.910
UNISAT 6 24 Sep 22:51:45 22:56:28 80° 282° (WNW) 23:01:09 437.425
JUGNU 24 Sep 23:00:46 23:02:39 11° 195° (SSW) 23:04:33 437.505
PCSat 24 Sep 23:05:08 23:09:19 22° 54° (NE) 23:13:29 145.827
AIST 2D 24 Sep 23:07:51 23:09:03 11° 93° (E) 23:10:13 435.315
Max Valier Satellite 24 Sep 23:10:00 23:10:40 10° 268° (W) 23:11:19 145.860
TIGRISAT 24 Sep 23:15:12 23:19:43 48° 286° (WNW) 23:24:13 435.000
LO-87 24 Sep 23:22:23 23:25:54 89° 78° (ENE) 23:29:27 145.935 - 145.965
PRISM 24 Sep 23:23:50 23:27:52 65° 284° (WNW) 23:31:53 437.425
ESTCUBE 1 24 Sep 23:26:11 23:30:38 61° 75° (ENE) 23:35:06 437.505/2401.250
YUBILEINY 24 Sep 23:31:08 23:39:48 65° 81° (E) 23:48:29 435.215
SPROUT 24 Sep 23:38:36 23:41:25 18° 69° (ENE) 23:44:15 437.525
QB50P2 24 Sep 23:42:49 23:45:17 15° 94° (E) 23:47:46 145.880/145.840
SO-50 24 Sep 23:43:16 23:47:39 45° 246° (WSW) 23:52:05 436.795
VELOX 1 24 Sep 23:50:20 23:53:21 18° 68° (ENE) 23:56:22 145.980
NANOSAT C BR1 25 Sep 00:15:38 00:19:23 29° 97° (E) 00:23:08 145.865
SRMSAT 25 Sep 00:26:23 00:30:09 17° 188° (S) 00:33:55 437.500
50 SAT 25 Sep 00:31:15 00:32:27 12° 69° (ENE) 00:33:38 437.505
AIST 2D 25 Sep 00:39:11 00:42:17 29° 286° (WNW) 00:45:21 435.315
DUCHIFAT 1 25 Sep 00:42:53 00:47:04 56° 100° (E) 00:51:15 145.980
UKube-1 25 Sep 00:45:56 00:47:26 12° 65° (ENE) 00:48:55 .
PCSat 25 Sep 00:47:45 00:52:53 45° 250° (WSW) 00:57:58 145.827
M-CUBED/EXP-1 PRIME 25 Sep 00:53:37 00:55:17 13° 100° (E) 00:56:56 437.505
DX 1 25 Sep 00:53:51 00:57:18 24° 70° (ENE) 01:00:45 434.975-435.025
POLYITAN 1 25 Sep 00:58:55 01:03:11 69° 284° (WNW) 01:07:27 437.675
EO-79 25 Sep 01:02:48 01:07:01 61° 284° (WNW) 01:11:13 145.935-145.965
BUGSAT 1 25 Sep 01:12:30 01:16:12 29° 97° (E) 01:19:55 437.445
SPROUT 25 Sep 01:13:17 01:17:02 31° 262° (W) 01:20:49 437.525
QB50P2 25 Sep 01:17:13 01:21:09 36° 287° (WNW) 01:25:05 145.880/145.840
VELOX 1 25 Sep 01:25:34 01:29:31 32° 262° (W) 01:33:29 145.980
YUBILEINY 25 Sep 01:29:30 01:35:47 23° 278° (W) 01:42:04 435.215
O/OREOS (USA 219) 25 Sep 01:42:28 01:46:39 39° 104° (ESE) 01:50:52 437.305
NANOSAT C BR1 25 Sep 01:51:51 01:54:50 19° 291° (WNW) 01:57:50 145.865
Gurwin Techsat 1B 25 Sep 01:58:12 02:02:45 29° 97° (E) 02:07:17 435.225
Oscar 19 25 Sep 02:00:34 02:05:31 46° 99° (E) 02:10:25 437.125/150
50 SAT 25 Sep 02:01:47 02:04:38 26° 262° (W) 02:07:29 437.505
BEESAT 25 Sep 02:11:18 02:13:28 13° 65° (ENE) 02:15:38 436.000
Tancredo 1 25 Sep 02:13:41 02:16:21 76° 226° (SW) 02:19:01 437.200
UKube-1 25 Sep 02:18:46 02:22:57 51° 260° (W) 02:27:09 .
nSIGHT-1 25 Sep 02:21:27 02:23:42 17° 32° (NNE) 02:25:58 .
DUCHIFAT 1 25 Sep 02:21:28 02:22:12 10° 294° (WNW) 02:22:54 145.980
M-CUBED/EXP-1 PRIME 25 Sep 02:27:09 02:29:43 22° 293° (WNW) 02:32:17 437.505
MOZHAYETS 4 25 Sep 02:27:41 02:30:51 19° 68° (ENE) 02:34:02
DX 1 25 Sep 02:29:50 02:33:21 24° 263° (W) 02:36:52 434.975-435.025
AO-7 25 Sep 02:45:28 02:48:58 13° 92° (E) 02:52:27 .
BUGSAT 1 25 Sep 02:48:20 02:51:19 19° 291° (WNW) 02:54:17 437.445
ITUPSAT 1 25 Sep 03:10:28 03:15:07 57° 74° (ENE) 03:19:50 437.325
ITAMSAT 1 25 Sep 03:11:35 03:13:18 11° 92° (E) 03:15:00 435.822/435.867
ISS 25 Sep 03:20:40 03:23:55 58° 41° (NE) 03:27:10 437.550
O/OREOS (USA 219) 25 Sep 03:23:22 03:26:12 16° 300° (WNW) 03:29:04 437.305
Gurwin Techsat 1B 25 Sep 03:38:02 03:42:35 30° 291° (WNW) 03:47:07 435.225
Oscar 19 25 Sep 03:41:01 03:44:25 18° 294° (WNW) 03:47:49 437.125/150
BEESAT 3 25 Sep 03:45:08 03:47:50 17° 51° (NE) 03:50:31 437.485
BEESAT 25 Sep 03:46:02 03:50:42 56° 259° (W) 03:55:24 436.000
nSIGHT-1 25 Sep 03:57:04 04:00:11 42° 227° (SW) 04:03:16 .
MOZHAYETS 4 25 Sep 04:03:28 04:07:42 36° 262° (W) 04:11:58
KKS-1 25 Sep 04:12:53 04:15:43 17° 67° (ENE) 04:18:32 437.445
CUBESAT XI-V 25 Sep 04:33:37 04:38:21 89° 276° (W) 04:43:03 437.345
AO-7 25 Sep 04:34:17 04:42:38 85° 108° (ESE) 04:50:56 .
STARS 25 Sep 04:34:26 04:35:25 11° 65° (ENE) 04:36:24 437.465
RS-15 25 Sep 04:35:48 04:47:32 57° 110° (ESE) 04:59:25 29.354- 29.394
ITAMSAT 1 25 Sep 04:47:57 04:53:08 67° 286° (WNW) 04:58:18 435.822/435.867
ITUPSAT 1 25 Sep 04:51:31 04:53:15 12° 268° (W) 04:54:58 437.325
AO-85 25 Sep 05:08:08 05:12:32 49° 59° (ENE) 05:17:16 145.980
BEESAT 3 25 Sep 05:21:55 05:25:28 32° 247° (WSW) 05:28:55 437.485
BEESAT 2 25 Sep 05:32:50 05:36:53 85° 62° (ENE) 05:40:51 435.950
KKS-1 25 Sep 05:47:53 05:51:56 36° 261° (W) 05:56:01 437.445
DOVE 4 25 Sep 05:55:19 05:59:35 59° 101° (E) 06:04:04 437.250
XW-2F 25 Sep 05:55:43 05:56:25 10° 92° (E) 05:57:07 145.980 - 146.000
XW-2B 25 Sep 05:56:31 05:57:54 12° 93° (E) 05:59:16 145.730 - 145.750
STARS 25 Sep 06:06:56 06:11:12 57° 259° (W) 06:15:30 437.465
NUDT-PHONESAT 25 Sep 06:12:08 06:13:54 13° 93° (E) 06:15:40 437.300
XW-2C 25 Sep 06:16:29 06:19:32 22° 96° (E) 06:22:32 145.795 - 145.815
AO-7 25 Sep 06:29:03 06:34:21 19° 304° (NW) 06:39:41 .
LilacSat-2 25 Sep 06:30:29 06:34:04 37° 98° (E) 06:37:35 437.200
KAITUO 1B 25 Sep 06:42:03 06:45:29 35° 98° (E) 06:48:53 145.475/437.950
STRAND 1 25 Sep 06:46:04 06:50:14 26° 69° (ENE) 06:54:27 437.568
CUTE-I 25 Sep 06:48:30 06:53:38 47° 100° (E) 06:58:45 437.470
RS-15 25 Sep 06:48:58 07:00:22 43° 311° (NW) 07:11:53 29.354- 29.394
AO-85 25 Sep 06:49:53 06:52:38 15° 250° (WSW) 06:55:28 145.980
XW-2D 25 Sep 07:16:07 07:19:48 49° 285° (WNW) 07:23:25 145.860 - 145.880
XW-2F 25 Sep 07:27:09 07:30:40 38° 286° (WNW) 07:34:10 145.980 - 146.000
XW-2B 25 Sep 07:28:42 07:32:11 35° 286° (WNW) 07:35:37 145.730 - 145.750
CUTE 1.7 + AOD 2 25 Sep 07:29:26 07:33:15 33° 97° (E) 07:37:02 437.475
XW-2A 25 Sep 07:32:37 07:33:12 10° 93° (E) 07:33:47 145.665 - 145.685
DOVE 4 25 Sep 07:36:17 07:36:48 10° 293° (WNW) 07:37:20 437.250
NUDT-PHONESAT 25 Sep 07:44:32 07:47:49 30° 287° (WNW) 07:51:04 437.300
HO-68 25 Sep 07:48:23 07:55:28 57° 102° (ESE) 08:02:30 435.675
XW-2C 25 Sep 07:50:50 07:53:31 19° 290° (WNW) 07:56:11 145.795 - 145.815
LilacSat-2 25 Sep 08:06:32 08:07:56 12° 292° (WNW) 08:09:19 437.200
CUBEBUG 2 25 Sep 08:17:01 08:21:45 70° 101° (ESE) 08:26:28 437.445
KAITUO 1B 25 Sep 08:17:39 08:19:05 12° 292° (WNW) 08:20:31 145.475/437.950
